Regional Weather Roundup
Issued by NWS

Home | Current Version | Previous Version | Text Only | Print | Product List | Glossary Off
Versions: 1 2 3 4 5 6 7 8 9 10 11 12 13 14 15 16 17 18 19 20 21 22 23 24 25 26 27 28 29 30 31 32 33 34 35 36 37 38 39 40 41 42 43 44 45 46 47 48 49 50

000
ASUS43 KMPX 252201
RWRMN
WEATHER ROUNDUP FOR MINNESOTA
NATIONAL WEATHER SERVICE TWIN CITIES/CHANHASSEN MN
500 PM CDT WED MAY 25 2016


NOTE: "FAIR" INDICATES FEW OR NO CLOUDS BELOW 12,000 FEET WITH NO
SIGNIFICANT WEATHER AND/OR OBSTRUCTIONS TO VISIBILITY. N/A MEANS
CURRENT SKY AND/OR WEATHER CONDITIONS ARE NOT AVAILABLE.

MNZ060>063-068>070-252300-
   Twin Cities Metro

CITY           SKY/WX    TMP DP  RH WIND       PRES   REMARKS
TWIN CITIES    PTSUNNY   73  63  70 SE7       29.80F
ST PAUL        CLOUDY    72  64  76 SE9       29.80S
CRYSTAL        CLOUDY    74  62  66 SE7       29.79S
EDEN PRAIRIE   MOSUNNY   74  64  71 SE5       29.79F
SOUTH ST PAUL  PTSUNNY   72  62  72 S9        29.80S
LAKE ELMO      CLOUDY    70  64  83 S10       29.82S
$$
MNZ001>005-007-008-013>017-022>024-027-028-252300-
   Northwest Minnesota

CITY           SKY/WX    TMP DP  RH WIND       PRES   REMARKS
BEMIDJI        CLOUDY    60  57  89 E17G23    29.76F
HALLOCK        LGT RAIN  59  57  94 NE13      29.79F
ROSEAU         LGT RAIN  59  54  82 NE13      29.82F
WARROAD        LGT RAIN  57  55  94 NE10      29.84F
THIEF RVR FALL CLOUDY    61  55  82 E20G26    29.73F
CROOKSTON      DRIZZLE   59  59 100 SE6       29.70F
FOSSTON        RAIN      57  57 100 E13G18    29.73F
DETROIT LAKES  MOSUNNY   68  63  83 S14       29.73S
MOORHEAD       MOSUNNY   70  63  78 SW15      29.69S
PARK RAPIDS    LGT RAIN  64  58  80 SE18G24   29.75F
MAHNOMEN       DRIZZLE   60  58  93 SE9       29.71F
$$
MNZ006-009>011-018-025>026-252300-
   North Central Minnesota

CITY           SKY/WX    TMP DP  RH WIND       PRES   REMARKS
BAUDETTE       LGT RAIN  63  56  78 E13       29.83F
FLAG ISLAND    DRIZZLE   61  55  82 E10G18    29.84F
INTL FALLS     CLOUDY    67  53  61 E15G23    29.87F
WASKISH        LGT RAIN  63  59  88 E8        29.82F
BIG FORK       CLOUDY    63  55  77 E7        29.86F
LONGVILLE      CLOUDY    61  55  82 E6        29.81F
GRAND RAPIDS   CLOUDY    58  55  90 NE8G21    29.87
CRANE LAKE     CLOUDY    66  48  52 CALM      29.92F
ORR            RAIN      66  48  52 SE9       29.89R
COOK           LGT RAIN  66  54  63 SE6       29.91R
WALKER         CLOUDY    59  55  87 E10G20    29.78F
$$
MNZ012-019>021-037-252300-
   Northeast Minnesota

CITY           SKY/WX    TMP DP  RH WIND       PRES   REMARKS
DULUTH         LGT RAIN  50  48  93 E15       29.94R FOG
ELY            CLOUDY    66  48  52 E9        29.92F
HIBBING        LGT RAIN  57  56  96 S5        29.90F FOG
EVELETH        RAIN      59  55  88 CALM      29.92F
DULUTH HARBOR  DRIZZLE   45  45 100 NE17      29.97R
TWO HARBORS    LGT RAIN  54  48  82 NE8       29.93R
SILVER BAY     CLOUDY    54  46  76 NE13G23   29.93F
GRAND MARAIS     N/A     45  41  86 NE12G18   29.98F
G MARAIS ARPRT CLOUDY    61  45  55 NE10      30.00F
$$
MNZ029>031-032-039>041-046>048-054>057-064-252300-
   West Central Minnesota

CITY           SKY/WX    TMP DP  RH WIND       PRES   REMARKS
FERGUS FALLS   SUNNY     73  61  64 SW22      29.70S
WHEATON        SUNNY     79  63  57 SW14      29.75S
MORRIS         MOSUNNY   75  57  53 SW13G21   29.75R
ALEXANDRIA     CLOUDY    74  63  68 S13       29.77S
ELBOW LAKE     FAIR      75  60  59 SW17      29.75S
WADENA         CLOUDY    66  63  88 SE20G25   29.75R
GLENWOOD       MOSUNNY   75  64  69 S12       29.77S
APPLETON       MOSUNNY   79  55  44 SW15G22   29.75S
BENSON         MOSUNNY   81  57  44 W13       29.75F
ORTONVILLE     MOSUNNY   79  55  44 SW14      29.74F
MADISON        SUNNY     79  55  44 SW13G24   29.76S
WILLMAR        FAIR      79  63  57 SW8G16    29.78S
$$
MNZ033>034-036-042>043-049>051-058-059-252300-
   Central Minnesota

CITY           SKY/WX    TMP DP  RH WIND       PRES   REMARKS
ST CLOUD       PTSUNNY   73  66  78 SE9       29.79F
SAUK CENTRE    CLOUDY    71  64  80 SE14G22   29.77S
PAYNESVILLE    PTSUNNY   74  63  69 SE13      29.78F
AITKIN         CLOUDY    61  52  72 E10       29.83F
PINE RIVER     CLOUDY    63  57  82 SE8       29.85R
BRAINERD       CLOUDY    64  58  80 E10G21    29.82S
STAPLES        CLOUDY    68  61  77 SE10G17   29.78S
LONG PRAIRIE   TSTM      63  59  88 SE13      29.78F
LITTLE FALLS   CLOUDY    72  61  68 SE12      29.79F
LITCHFIELD     MOSUNNY   75  68  78 SE9G16    29.79F
BUFFALO        MOSUNNY   73  63  70 SE3       29.81F
MAPLE LAKE     CLOUDY    73  66  80 SE5       29.82S
HUTCHINSON     CLOUDY    76  67  74 SE7       29.79F
$$
MNZ037-044-045-052-053-252300-
   East Central Minnesota

CITY           SKY/WX    TMP DP  RH WIND       PRES   REMARKS
PRINCETON      PTSUNNY   73  64  73 E8        29.81F
MORA           PTSUNNY   63  59  88 E7        29.85F
CAMBRIDGE      CLOUDY    72  61  68 NE7       29.80F
RUSH CITY      CLOUDY    65  62  89 NE7       29.84F
MOOSE LAKE     CLOUDY    50  46  87 NE7G17    29.86F
HINCKLEY       CLOUDY    59  57  94 NE8       29.85F
CLOQUET        LGT RAIN  50  48  93 E14G21    29.92F
MCGREGOR       CLOUDY    54  52  94 E9        29.87F
$$
MNZ071>073-080-081-089-090-097-098-252300-
   Southwest Minnesota

CITY           SKY/WX    TMP DP  RH WIND       PRES   REMARKS
MONTEVIDEO     MOSUNNY   81  57  44 W10G18    29.78S
GRANITE FALLS  MOSUNNY   82  60  46 S16G23    29.78F
CANBY          SUNNY     81  60  48 SW12G18   29.78S
MARSHALL       MOSUNNY   79  60  52 W16       29.78F
REDWOOD FALLS  SUNNY     80  60  50 SW13      29.77S
OLIVIA         CLOUDY    73  64  73 S8        29.77S
PIPESTONE      MOSUNNY   75  61  60 W10G16    29.81F
WINDOM         SUNNY     79  61  53 CALM      29.81S
WORTHINGTON    MOSUNNY   77  61  57 W10       29.82F
JACKSON        SUNNY     81  54  39 SW10      29.83R
TRACY          SUNNY     79  59  50 SW18G24   29.80S
SLAYTON        MOSUNNY   77  58  51 W16       29.82S
$$
MNZ065>067-074>077-082>085-091>093-252300-
   South Central Minnesota

CITY           SKY/WX    TMP DP  RH WIND       PRES   REMARKS
MANKATO        CLOUDY    79  61  53 S7        29.80S
NEW ULM        CLOUDY    75  64  69 SE5       29.79S
ST JAMES       SUNNY     75  57  53 W13       29.80S
FAIRMONT       MOSUNNY   81  45  28 W12       29.80S
GLENCOE        CLOUDY    77  68  73 SE5       29.79F
FARIBAULT      PTSUNNY   75  66  73 S9        29.81F
OWATONNA       CLOUDY    75  64  69 SW12      29.81F
WASECA         CLOUDY    77  64  65 S7        29.82F
ALBERT LEA     CLOUDY    77  61  57 SW7       29.81F
$$
MNZ078>079-086>088-094>096-252300-
   Southeast Minnesota

CITY           SKY/WX    TMP DP  RH WIND       PRES   REMARKS
ROCHESTER      LGT RAIN  73  67  81 SW17      29.83F
RED WING       CLOUDY    70  66  88 SE5       29.79F
STANTON        MOSUNNY   72  63  74 SW7       29.80S
DODGE CENTER   MOSUNNY   70  70 100 SW16      29.82F
WINONA         PTSUNNY   73  66  78 SW9       29.81F
AUSTIN         MOSUNNY   75  64  69 SW8       29.83S
PRESTON        MOSUNNY   73  63  71 S14       29.85S
$$
ABBREVIATIONS USED IN REMARKS
   TC - TEMPERATURES IN CELSIUS
  WCI - WIND CHILL INDEX
   HX - HEAT INDEX
  VSB - VISIBILITY
$$



USA.gov is the U.S. government's official web portal to all federal, state and local government web resources and services.